Weather History for Surat Thani, Thailand

Change the Weather History Date:

Friday, October 14, 2011

  Actual Average Record
Temperature  
Mean Temperature 83 °F -  
Max Temperature 93 °F 87 °F - ()
Min Temperature 73 °F 73 °F - ()
Cooling Degree Days 18    
Growing Degree Days 33 (Base 50)    
Moisture  
Dew Point 73 °F    
Average Humidity 76    
Maximum Humidity 95    
Minimum Humidity 52    
Precipitation  
Precipitation 0.00 in 0.38 in - ()
Sea Level Pressure  
Sea Level Pressure 29.81 in    
Wind  
Wind Speed 2 mph ()    
Max Wind Speed 12 mph    
Max Gust Speed -    
Visibility 4.9 miles    
Events      
T = Trace of Precipitation, MM = Missing Value Source: Averaged Metar Reports

Daily Weather History Graph

Daily Weather History Graph

Search for Another Location

Airport:

Trip Planner

Search our weather history database for the weather conditions in past years. The results will help you decide how hot, cold, wet, or windy it might be!

Date:

Astronomy

Oct. 14, 2011 Rise Set
Actual Time 6:11 AM ICT 6:07 PM ICT
Civil Twilight 5:50 AM ICT 6:28 PM ICT
Nautical Twilight 5:25 AM ICT 6:53 PM ICT
Astronomical Twilight 5:01 AM ICT 7:17 PM ICT
Moon 7:36 PM ICT (10/14) 7:37 AM ICT (10/14)
Length of Visible Light 12h 38m
Length of Day
11h 56m
Waning Gibbous, 96% of the Moon is Illuminated
Oct 14
Waning Gibbous
Oct 20
Last Quarter
Oct 27
New
Nov 2
First Quarter
Nov 11
Full

Hourly Weather History & Observations

Time (ICT) Temp. Heat Index Dew Point Humidity Pressure Visibility Wind Dir Wind Speed Gust Speed Precip Events Conditions
12:00 AM 77.0 °F - 73.4 °F 89% 29.86 in 3.1 mi Calm Calm - N/A   Scattered Clouds
1:00 AM 76 °F - 73 °F 86% 29.83 in 4 mi Calm Calm - -   Mist
1:00 AM 77.0 °F - 73.4 °F 89% 29.83 in 3.1 mi Calm Calm - N/A   Mostly Cloudy
3:00 AM 75.2 °F - 73.4 °F 94% 29.80 in 3.1 mi Calm Calm - N/A   Partly Cloudy
4:00 AM 75.2 °F - 71.6 °F 89% 29.80 in 2.5 mi Calm Calm - N/A   Partly Cloudy
5:00 AM 73.4 °F - 71.6 °F 94% 29.80 in 2.5 mi Calm Calm - N/A   Partly Cloudy
6:00 AM 73.4 °F - 71.6 °F 94% 29.83 in 3.1 mi Calm Calm - N/A   Scattered Clouds
7:00 AM 73 °F - 72 °F 95% 29.83 in 4 mi Calm Calm - -   Mist
7:00 AM 73.4 °F - 71.6 °F 94% 29.83 in 3.7 mi Calm Calm - N/A   Scattered Clouds
8:00 AM 77.0 °F - 75.2 °F 94% 29.86 in 5.0 mi Calm Calm - N/A   Scattered Clouds
9:00 AM 82.4 °F 89.5 °F 75.2 °F 79% 29.86 in 6.2 mi South 5.8 mph - N/A   Mostly Cloudy
10:00 AM 86.0 °F 95.1 °F 75.2 °F 70% 29.89 in 6.2 mi South 5.8 mph - N/A   Scattered Clouds
11:00 AM 86.0 °F 93.4 °F 73.4 °F 66% 29.86 in 6.2 mi SSW 5.8 mph - N/A   Mostly Cloudy
12:00 PM 87.8 °F 95.6 °F 73.4 °F 62% 29.83 in 6.2 mi South 5.8 mph - N/A   Mostly Cloudy
1:00 PM 91 °F - 78 °F 57% 29.81 in 6 mi SW 3.5 mph - -   Scattered Clouds
1:00 PM 89.6 °F 96.2 °F 71.6 °F 55% 29.80 in 6.2 mi SSW 8.1 mph - N/A   Mostly Cloudy
2:00 PM 89.6 °F 94.7 °F 69.8 °F 52% 29.77 in 6.2 mi SW 11.5 mph - N/A   Mostly Cloudy
4:00 PM 89.6 °F 96.2 °F 71.6 °F 55% 29.74 in 6.2 mi WSW 8.1 mph - N/A   Mostly Cloudy
5:00 PM 89.6 °F 96.2 °F 71.6 °F 55% 29.74 in 6.2 mi WSW 8.1 mph - N/A   Scattered Clouds
6:00 PM 87.8 °F 97.6 °F 75.2 °F 66% 29.74 in 6.2 mi SW 6.9 mph - N/A   Scattered Clouds
7:00 PM 84 °F - 74 °F 64% 29.77 in 6 mi Calm Calm - -   Scattered Clouds
7:00 PM 84.2 °F 92.3 °F 75.2 °F 74% 29.77 in 6.2 mi WSW 5.8 mph - N/A   Scattered Clouds
8:00 PM 80.6 °F 86.2 °F 75.2 °F 84% 29.80 in 5.0 mi SSW 3.5 mph - N/A   Partly Cloudy